Weather History for Calgary Springbank, AB

Change the Weather History Date:

Tuesday, March 12, 2013

  Actual Average Record
Temperature  
Mean Temperature 26 °F -  
Max Temperature 42 °F 39 °F 55 °F (2007)
Min Temperature 10 °F 17 °F -13 °F (2003)
Degree Days  
Heating Degree Days 39    
Moisture  
Dew Point 18 °F    
Average Humidity 64    
Maximum Humidity 86    
Minimum Humidity 37    
Precipitation  
Precipitation 0.00 in - - ()
Sea Level Pressure  
Sea Level Pressure 30.02 in    
Wind  
Wind Speed 3 mph ()    
Max Wind Speed 16 mph    
Max Gust Speed -    
Visibility 15.7 miles    
Events      
Averages and records for this station are not official NWS values.
T = Trace of Precipitation, MM = Missing Value Source: Averaged Metar Reports

Daily Weather History Graph

Daily Weather History Graph

Search for Another Location

Airport:

Trip Planner

Search our weather history database for the weather conditions in past years. The results will help you decide how hot, cold, wet, or windy it might be!

Date:

Astronomy

Mar. 12, 2013 Rise Set
Actual Time 7:57 AM MDT 7:37 PM MDT
Civil Twilight 7:24 AM MDT 8:10 PM MDT
Nautical Twilight 6:45 AM MDT 8:49 PM MDT
Astronomical Twilight 6:06 AM MDT 9:28 PM MDT
Moon 7:55 AM MDT (3/12) 9:11 PM MDT (3/12)
Length of Visible Light 12h 46m
Length of Day
11h 40m
New Moon, 1% of the Moon is Illuminated
Mar 12
New Moon
Mar 19
First Quarter
Mar 27
Full
Apr 2
Last Quarter
Apr 10
New

Hourly Weather History & Observations

Time (MDT) Temp. Windchill Dew Point Humidity Pressure Visibility Wind Dir Wind Speed Gust Speed Precip Events Conditions
5:00 AM 15.8 °F - 12.2 °F 86% 30.20 in 15.0 mi Calm Calm - N/A   Overcast
6:00 AM 16 °F - 12 °F 76% 30.19 in 15 mi Calm Calm - -   Overcast
6:00 AM 15.8 °F - 12.2 °F 86% 30.19 in 15.0 mi SW 2.3 mph - N/A   Overcast
7:00 AM 15.8 °F 10.2 °F 12.2 °F 86% 30.17 in 15.0 mi ESE 3.5 mph - N/A   Overcast
8:00 AM 15.8 °F 10.2 °F 12.2 °F 86% 30.15 in 30.0 mi SSW 3.5 mph - N/A   Overcast
9:00 AM 17.6 °F - 12.2 °F 79% 30.11 in 30.0 mi Calm Calm - N/A   Overcast
10:00 AM 19.4 °F 12.8 °F 14.0 °F 80% 30.09 in 30.0 mi SSE 4.6 mph - N/A   Overcast
11:00 AM 24.8 °F - 14.0 °F 64% 30.06 in 30.0 mi Calm Calm - N/A   Overcast
12:00 PM 28 °F - 15 °F 46% 30.04 in 28 mi Calm Calm - -   Overcast
12:00 PM 28.4 °F - 15.8 °F 59% 30.03 in 30.0 mi East 2.3 mph - N/A   Overcast
1:00 PM 30.2 °F 26.7 °F 15.8 °F 55% 30.01 in 30.0 mi East 3.5 mph - N/A   Overcast
2:00 PM 32.0 °F 27.5 °F 15.8 °F 51% 29.99 in 30.0 mi SSE 4.6 mph - N/A   Overcast
3:00 PM 35.6 °F 28.6 °F 19.4 °F 52% 29.95 in 30.0 mi SSE 9.2 mph - N/A   Mostly Cloudy
4:00 PM 37.4 °F 32.1 °F 21.2 °F 52% 29.92 in 30.0 mi SSE 6.9 mph - N/A   Mostly Cloudy
5:00 PM 37.4 °F 31.4 °F 23.0 °F 56% 29.90 in 30.0 mi SE 8.1 mph - N/A   Mostly Cloudy
6:00 PM 41 °F - 24 °F 37% 29.89 in 28 mi South 4.6 mph - -   Scattered Clouds
6:00 PM 41.0 °F 36.4 °F 23.0 °F 49% 29.89 in 30.0 mi South 6.9 mph - N/A   Partly Cloudy
6:36 PM 41.0 °F 32.8 °F 24.8 °F 53% 29.90 in 30.0 mi West 16.1 mph - N/A   Partly Cloudy
7:00 PM 39.2 °F 30.8 °F 24.8 °F 56% 29.90 in 30.0 mi West 15.0 mph - N/A   Clear
8:00 PM 33.8 °F 28.6 °F 23.0 °F 65% 29.91 in 20.0 mi SW 5.8 mph - N/A   Clear
9:00 PM 32.0 °F 26.4 °F 23.0 °F 69% 29.92 in 15.0 mi South 5.8 mph - N/A   Clear
10:00 PM 30.2 °F 23.4 °F 23.0 °F 75% 29.93 in 15.0 mi SSE 6.9 mph - N/A   Clear